AirNav   Air Wisconsin Up To $57,000 Bonus
 
 1438 users online  

WI23 Cornucopia Field Airport
Cornucopia, Wisconsin, USA

GOING TO CORNUCOPIA?


FAA INFORMATION EFFECTIVE 05 DECEMBER 2019

Location

FAA Identifier: WI23
Lat/Long: 46-51-59.7550N 091-05-00.6710W
46-51.995917N 091-05.011183W
46.8665986,-91.0835197
(estimated)
Elevation: 760 ft. / 232 m (estimated)
Variation: 01E (1985)
From city: 1 mile W of CORNUCOPIA, WI
Time zone: UTC -6 (UTC -5 during Daylight Saving Time)
Zip code: 54827

Airport Operations

Airport use: Private use. Permission required prior to landing
Activation date: 07/1968
Control tower: no
ARTCC: MINNEAPOLIS CENTER
FSS: GREEN BAY FLIGHT SERVICE STATION
Attendance: UNATNDD
Wind indicator: yes
Segmented circle: no

Airport Communications

WX AWOS-3PT at 4R5 (14 nm E): 119.375 (715-747-5519)

Nearby radio navigation aids

NDB name  Hdg/Dist  Freq  Var  ID
SILVER BAY150/26.735000EBFW -... ..-. .--

Airport Services

Parking: tiedowns
Airframe service: NONE
Powerplant service: NONE

Runway Information

Runway 5/23

Dimensions: 2010 x 80 ft. / 613 x 24 m
Surface: turf, in fair condition
RUNWAY 5  RUNWAY 23
Traffic pattern: leftleft
Obstructions: 5 ft. brush, 45 ft. right of centerline4 ft. trees, 54 ft. right of centerline

Airport Ownership and Management from official FAA records

Ownership: Publicly-owned
Owner: TOWN OF BELL
CORNUCOPIA MEN CLUB; BOX 113
CORNUCOPIA, WI 54827
Phone 715-742-3470
Manager: TIM KASENO
BOX 274
CORNUCOPIA, WI 54827
Phone 612-877-1095

Airport Operational Statistics

Aircraft operations: 200/year *
100% transient general aviation
* for 12-month period ending 07 April 1987

Additional Remarks

RY 05/23 HAS A 110' STWY ON SW END & 80' STWY ON NE END.
TERRAIN DROPS OFF APRXLY 8-10' IN LAST 200' OF RWY/STOPWAY SOUTHWEST END RWY 05/23.
FOR CD CTC MINNEAPOLIS ARTCC AT 651-463-5588.

Instrument Procedures

There are no published instrument procedures at WI23.

Some nearby airports with instrument procedures:

4R5 - Major Gilbert Field Airport (14 nm E)
KASX - John F Kennedy Memorial Airport (20 nm S)
KTWM - Richard B Helgeson Airport (29 nm W)
3CU - Cable Union Airport (41 nm S)
KSUW - Richard I Bong Airport (43 nm W)
 
Loc | Ops | Rwys | IFR | FBO | Links
Com | Nav | Svcs | Stats | Notes
Area around WI23 (Cornucopia Field Airport)
 
Road maps at: MapQuest Bing Google
 
Aerial photo
WARNING: Photo may not be current or correct
Aerial photo of WI23 (Cornucopia Field Airport)
Photo taken 21-Jun-2019

Do you have a better or more recent aerial photo of Cornucopia Field Airport that you would like to share? If so, please send us your photo.

 
Sectional chart

 
Airport distance calculator
Flying to Cornucopia Field Airport? Find the distance to fly.

From to WI23

Sunrise and sunset
Times for 07-Dec-2019
 Local
(UTC-6)
 Zulu
(UTC)
Morning civil twilight07:0213:02
Sunrise07:3713:37
Sunset16:1522:15
Evening civil twilight16:5022:50

Current date and time
Zulu (UTC)  07-Dec-2019 18:19:13
Local (UTC-6)  07-Dec-2019 12:19:13
 
METAR
K4R5 
14nm E 
071755Z AUTO 20005KT 10SM BKN110 M03/M07 A3006 RMK AO2 T10281070
KASX 
20nm S 
071753Z AUTO 17003KT 10SM FEW100 M03/M07 A3005 RMK AO2 SLP192 I6000 T10331072 11033 21133 58027
KBFW 
24nm NW 
071755Z AUTO 00000KT 10SM CLR M07/M11 A3002 RMK AO2
TAF
KIWD 
45nm SE 
071721Z 0718/0818 19009KT P6SM OVC100 FM072100 18011G20KT P6SM OVC080 FM080400 20016G28KT P6SM BKN120 WS020/22045KT FM080900 22012G23KT P6SM BKN024 FM081100 24009KT P6SM VCSH OVC013 FM081500 27007KT 5SM -SHSN BR OVC006
KDLH 
46nm W 
071725Z 0718/0818 17007KT P6SM SCT009 BKN060 FM072100 17009G16KT P6SM OVC060 FM080200 20011G21KT P6SM BKN013 FM080300 21012G22KT P6SM BKN008 WS020/22041KT FM080600 25009G17KT P6SM OVC005 FM081300 31008KT P6SM BKN006
NOTAMs
Click for the latest NOTAMs
NOTAMs are issued by the DoD/FAA and will open in a separate window not controlled by AirNav.

 

 
 

Would you like to see your business listed on this page?

 If your business provides an interesting product or service to pilots, flight crews, aircraft, or users of the Cornucopia Field Airport, you should consider listing it here.  To start the listing process, click on the button below
 
Add a business
 

Other Pages about Cornucopia Field Airport

Update a link
 
Copyright © AirNav, LLC. All rights reserved. Privacy Policy  Contact